Showing default

JILIN-01-07, 43159

Orbit data source: Space-Track

JILIN-01-07, 43159 is a Chinese payload satellite in SSO that was launched on Fri, 19 Jan 2018 UTC via a CHANG ZHENG 11 launch vehicle from the Jiuquan Satellite Launch Center, China (JSC). Payload-class satellites include a variety of spacecraft equipped with specific instruments for various scientific and technological missions. These include communications satellites like Starlink; space stations such as the ISS; scientific satellites like the Hubble; Earth observation satellites from companies like Planet Labs, Umbra, and HawkEye 360; GPS; miniature CubeSats for education and research; and military/defense satellites.

Loading next visibility...
Identifier
43159, 2018-008E
Orbit
SSO
Country
Flag of CNCN / PRC
Related business
Manufacturer
Changguang WJ
Mission
Operational Commercial Imaging
Bus & Motor
JL-1, Unknown motor
Mass
95 kg wet, 95 kg dry
Launch date (UTC)
2018-01-19 (8 years ago)
Launch vehicle
CHANG ZHENG 11
Launch site
Jiuquan Satellite Launch Center, China (JSC)
Object type
Payload
Rocket body
Debris
Shape & HBR
Box + 2 Pan, 0.8 m
Radar Cross Section
2.000 m², Medium (>0.1 m² and < 1m²)

Expand to show TLE details & history
Last TLE update: 7 hours ago

TLE from 7 hours ago
0 JILIN-01-07
1 43159U 18008E   26034.59099927  .00010113  00000-0  32644-3 0  9992
2 43159  97.1894  58.2170 0008983 165.9591 194.1903 15.32278065444524
Epoch: 2026-02-03T14:11Z
TLE epoch observation values (Epoch: 2026-02-03T14:11:02.336Z)
Latitude
-0.00003°
Longitude
71.68753°
Altitude
478.095 km
Speed
7.623 km/s
True Right ascension
03h 52m 52s
True Declination
0° 00' 00"
Sunlit
Object was in daylight at epoch
Visualization orbit readout
Latitude
Unknown
Longitude
Unknown
Altitude
Unknown
Speed
Unknown
Apparent Right ascension
Unknown
Apparent Declination
Unknown
Sunlit
N/A
Visualization observer readout
Local Sidereal Time
22:52:27
Azimuth
Unknown
Elevation
Unknown
Doppler factor
Unknown
Orbital elements
Apogee altitude
472.106 km
Perigee altitude
459.81 km
Semi-major axis
6,844.095 km
Eccentricity
0.0009
Inclination
97.1894°
RAAN
58.217°
Arg. of periapsis
165.9591°
True anomaly
194.16509°
Mean anomaly
194.1903°
Eccentric anomaly
194.17769°
Mean motion
3.83327 °/min
Orbital period
93.91 mins
BSTAR
0.00032644
Loading maneuver chart data...
Computing Atmospheric mass density...
Loading historical data...
Loading historical data...
Loading historical data...
Loading historical data...
Loading historical data...
Loading historical data...
Loading historical data...

Documentation

Showing up to 5 results
|